JH4GLG-13 Weather Reports


time (UTC)temp
C
wind
direction
speed
KPH
gust
KPH
rain 1hr
cm
rain 24hr
cm
rain mn
cm
humidity
%
barometer
mb
20260505062628 21 0 0.0 0.0 0.00 0.00 0.00 38 1018.4
20260505061127 21 0 0.0 0.0 0.00 0.00 0.00 38 1018.6
20260505055628 22 0 0.0 0.0 0.00 0.00 0.00 38 1018.8
20260505054126 22 0 0.0 0.0 0.00 0.00 0.00 38 1018.9
20260505052627 22 0 0.0 0.0 0.00 0.00 0.00 36 1019.1
20260505051126 23 0 0.0 0.0 0.00 0.00 0.00 34 1019.2
20260505041126 22 0 0.0 0.0 0.00 0.00 0.00 43 1020.1
20260505035627 22 0 0.0 0.0 0.00 0.00 0.00 43 1020.2
20260505034125 21 0 0.0 0.0 0.00 0.00 0.00 44 1020.4
20260505032626 21 0 0.0 0.0 0.00 0.00 0.00 45 1020.5
20260505031125 21 0 0.0 0.0 0.00 0.00 0.00 45 1020.7
20260505025626 21 0 0.0 0.0 0.00 0.00 0.00 47 1020.7
20260505024125 22 0 0.0 0.0 0.00 0.00 0.00 46 1021.0
20260505022626 21 0 0.0 0.0 0.00 0.00 0.00 48 1021.2
20260505021125 21 0 0.0 0.0 0.00 0.00 0.00 49 1021.2
20260505015707 22 0 0.0 0.0 0.00 0.00 0.00 49 1021.4
20260505015625 22 0 0.0 0.0 0.00 0.00 0.00 49 1021.4
20260505014124 22 0 0.0 0.0 0.00 0.00 0.00 48 1021.4
20260505012626 21 0 0.0 0.0 0.00 0.00 0.00 51 1021.4
20260505011125 21 0 0.0 0.0 0.00 0.00 0.00 49 1021.5
20260505005626 22 0 0.0 0.0 0.00 0.00 0.00 47 1021.6
20260505004124 20 0 0.0 0.0 0.00 0.00 0.00 51 1021.6
20260505002629 18 0 0.0 0.0 0.00 0.00 0.00 51 1021.5
20260505002625 18 0 0.0 0.0 0.00 0.00 0.00 51 1021.6
20260505001124 19 0 0.0 0.0 0.00 0.00 0.00 57 1021.6
20260504235628 17 0 0.0 0.0 0.00 0.00 0.00 57 1021.6
20260504235625 17 0 0.0 0.0 0.00 0.00 0.00 57 1021.5
20260504234123 18 0 0.0 0.0 0.00 0.00 0.00 61 1021.5
20260504232628 17 0 0.0 0.0 0.00 0.00 0.00 62 1021.5
20260504232624 17 0 0.0 0.0 0.00 0.00 0.00 63 1021.6
20260504231123 15 0 0.0 0.0 0.00 0.00 0.00 69 1021.7
20260504225625 -17 0 0.0 0.0 0.00 0.00 0.00 1021.6
20260504224123 15 0 0.0 0.0 0.00 0.00 0.00 71 1021.5
20260504222624 14 0 0.0 0.0 0.00 0.00 0.00 75 1021.6
20260504221123 15 0 0.0 0.0 0.00 0.00 0.00 75 1021.4
20260504215623 13 0 0.0 0.0 0.00 0.00 0.00 79 1021.4
20260504214123 12 0 0.0 0.0 0.00 0.00 0.00 83 1021.4
20260504212624 11 0 0.0 0.0 0.00 0.00 0.00 86 1021.4
20260504211122 11 0 0.0 0.0 0.00 0.00 0.00 90 1021.3
20260504205625 -17 0 0.0 0.0 0.00 0.00 0.00 1021.0
20260504204122 10 0 0.0 0.0 0.00 0.00 0.00 91 1020.8
20260504202624 10 0 0.0 0.0 0.00 0.00 0.00 91 1020.6
20260504201122 10 0 0.0 0.0 0.00 0.00 0.00 91 1020.4
20260504195623 10 0 0.0 0.0 0.00 0.00 0.00 91 1020.2
20260504194122 10 0 0.0 0.0 0.00 0.00 0.00 91 1020.0
20260504192623 10 0 0.0 0.0 0.00 0.00 0.00 91 1019.8
20260504191122 10 0 0.0 0.0 0.00 0.00 0.00 90 1019.7
20260504185622 10 0 0.0 0.0 0.00 0.00 0.00 90 1019.5
20260504184121 10 0 0.0 0.0 0.00 0.00 0.00 89 1019.3
20260504182623 11 0 0.0 0.0 0.00 0.00 0.00 89 1019.3
20260504181121 11 0 0.0 0.0 0.00 0.00 0.00 89 1019.2
20260504175624 11 0 0.0 0.0 0.00 0.00 0.00 88 1019.0
20260504174121 11 0 0.0 0.0 0.00 0.00 0.00 88 1019.0
20260504172622 11 0 0.0 0.0 0.00 0.00 0.00 87 1018.8
20260504171121 11 0 0.0 0.0 0.00 0.00 0.00 87 1018.7
20260504151119 12 0 0.0 0.0 0.00 0.00 0.00 84 1018.5
20260504141119 12 0 0.0 0.0 0.00 0.00 0.00 82 1018.4
20260504081117 17 0 0.0 0.0 0.00 0.00 0.00 59 1012.9